TimeCDT,TemperatureF,Dew PointF,Humidity,Sea Level PressureIn,VisibilityMPH,Wind Direction,Wind SpeedMPH,Gust SpeedMPH,PrecipitationIn,Events,Conditions,WindDirDegrees,DateUTC
12:13 AM,30.2,28.4,93,30.31,5.0,Calm,Calm,-,N/A,,Overcast,0,2012-10-29 05:13:00
12:33 AM,30.2,28.4,93,30.31,7.0,Calm,Calm,-,N/A,,Overcast,0,2012-10-29 05:33:00
12:52 AM,30.2,28.4,93,30.31,7.0,Calm,Calm,-,N/A,,Overcast,0,2012-10-29 05:52:00
1:13 AM,30.2,28.4,93,30.31,7.0,Calm,Calm,-,N/A,,Overcast,0,2012-10-29 06:13:00
1:33 AM,30.2,28.4,93,30.31,7.0,Calm,Calm,-,N/A,,Overcast,0,2012-10-29 06:33:00
1:52 AM,30.2,28.4,93,30.31,7.0,Calm,Calm,-,N/A,,Overcast,0,2012-10-29 06:52:00
2:13 AM,30.2,28.4,93,30.32,5.0,Calm,Calm,-,N/A,,Overcast,0,2012-10-29 07:13:00
2:33 AM,30.2,30.2,100,30.32,7.0,Calm,Calm,-,N/A,,Overcast,0,2012-10-29 07:33:00
2:52 AM,30.2,30.2,100,30.32,10.0,Calm,Calm,-,N/A,,Overcast,0,2012-10-29 07:52:00
3:13 AM,30.2,30.2,100,30.32,7.0,Calm,Calm,-,N/A,Snow,Light Snow,0,2012-10-29 08:13:00
3:33 AM,30.2,30.2,100,30.32,7.0,Calm,Calm,-,N/A,Snow,Light Snow,0,2012-10-29 08:33:00
3:52 AM,30.2,30.2,100,30.31,5.0,Calm,Calm,-,N/A,Snow,Light Snow,0,2012-10-29 08:52:00
4:13 AM,30.2,30.2,100,30.31,7.0,Calm,Calm,-,N/A,Snow,Light Snow,0,2012-10-29 09:13:00
4:33 AM,30.2,30.2,100,30.31,10.0,Calm,Calm,-,N/A,,Overcast,0,2012-10-29 09:33:00
4:52 AM,30.2,28.4,93,30.31,7.0,Calm,Calm,-,N/A,,Mostly Cloudy,0,2012-10-29 09:52:00
5:13 AM,30.2,30.2,100,30.31,7.0,Calm,Calm,-,N/A,,Overcast,0,2012-10-29 10:13:00
5:32 AM,30.2,28.4,93,30.31,7.0,Calm,Calm,-,N/A,,Overcast,0,2012-10-29 10:32:00
5:53 AM,30.2,30.2,100,30.31,7.0,Calm,Calm,-,N/A,,Overcast,0,2012-10-29 10:53:00
6:13 AM,30.2,30.2,100,30.31,7.0,Calm,Calm,-,N/A,,Overcast,0,2012-10-29 11:13:00
6:53 AM,30.2,28.4,93,30.31,7.0,Calm,Calm,-,N/A,,Overcast,0,2012-10-29 11:53:00
7:12 AM,30.2,30.2,100,30.31,5.0,Calm,Calm,-,N/A,,Overcast,0,2012-10-29 12:12:00
7:32 AM,30.2,28.4,93,30.31,7.0,Calm,Calm,-,N/A,,Overcast,0,2012-10-29 12:32:00
7:53 AM,30.2,30.2,100,30.32,7.0,Calm,Calm,-,N/A,,Overcast,0,2012-10-29 12:53:00
8:12 AM,30.2,30.2,100,30.32,7.0,Calm,Calm,-,N/A,,Overcast,0,2012-10-29 13:12:00
8:33 AM,30.2,30.2,100,30.33,5.0,Calm,Calm,-,N/A,,Overcast,0,2012-10-29 13:33:00
8:52 AM,30.2,30.2,100,30.33,7.0,Calm,Calm,-,N/A,,Overcast,0,2012-10-29 13:52:00
9:13 AM,32.0,30.2,93,30.33,7.0,Calm,Calm,-,N/A,,Overcast,0,2012-10-29 14:13:00
9:32 AM,32.0,30.2,93,30.33,7.0,Calm,Calm,-,N/A,,Overcast,0,2012-10-29 14:32:00
9:52 AM,33.8,30.2,87,30.33,7.0,SSE,4.6,-,N/A,,Overcast,150,2012-10-29 14:52:00
10:13 AM,33.8,30.2,87,30.33,10.0,East,3.5,-,N/A,,Overcast,90,2012-10-29 15:13:00
10:32 AM,33.8,32.0,93,30.33,10.0,ESE,4.6,-,N/A,,Overcast,120,2012-10-29 15:32:00
10:52 AM,33.8,32.0,93,30.33,10.0,Calm,Calm,-,N/A,,Overcast,0,2012-10-29 15:52:00
11:13 AM,35.6,32.0,87,30.33,10.0,Calm,Calm,-,N/A,,Overcast,0,2012-10-29 16:13:00
11:32 AM,35.6,33.8,93,30.32,10.0,SE,5.8,-,N/A,,Overcast,130,2012-10-29 16:32:00
11:52 AM,37.4,33.8,87,30.32,10.0,SE,6.9,-,N/A,,Mostly Cloudy,140,2012-10-29 16:52:00
12:13 PM,39.2,33.8,81,30.32,10.0,SE,10.4,-,N/A,,Overcast,130,2012-10-29 17:13:00
12:32 PM,41.0,33.8,76,30.31,10.0,SE,5.8,-,N/A,,Mostly Cloudy,140,2012-10-29 17:32:00
12:53 PM,42.8,32.0,66,30.31,10.0,SSE,8.1,-,N/A,,Scattered Clouds,160,2012-10-29 17:53:00
1:13 PM,42.8,30.2,61,30.30,10.0,South,8.1,-,N/A,,Mostly Cloudy,170,2012-10-29 18:13:00
1:32 PM,42.8,28.4,57,30.30,10.0,SSE,9.2,-,N/A,,Mostly Cloudy,160,2012-10-29 18:32:00
1:53 PM,42.8,28.4,57,30.30,10.0,SSE,6.9,-,N/A,,Overcast,150,2012-10-29 18:53:00
2:13 PM,44.6,28.4,53,30.29,10.0,SSE,6.9,-,N/A,,Mostly Cloudy,160,2012-10-29 19:13:00
2:32 PM,42.8,26.6,53,30.29,10.0,SE,8.1,-,N/A,,Scattered Clouds,140,2012-10-29 19:32:00
2:53 PM,44.6,26.6,49,30.29,10.0,SE,4.6,-,N/A,,Mostly Cloudy,140,2012-10-29 19:53:00
3:13 PM,42.8,24.8,49,30.29,10.0,Calm,Calm,-,N/A,,Overcast,0,2012-10-29 20:13:00
3:32 PM,44.6,24.8,46,30.29,10.0,Calm,Calm,-,N/A,,Overcast,0,2012-10-29 20:32:00
3:53 PM,44.6,24.8,46,30.28,10.0,ESE,8.1,-,N/A,,Overcast,110,2012-10-29 20:53:00
4:13 PM,44.6,24.8,46,30.29,10.0,Calm,Calm,-,N/A,,Scattered Clouds,0,2012-10-29 21:13:00
4:32 PM,44.6,26.6,49,30.29,10.0,ESE,3.5,-,N/A,,Clear,110,2012-10-29 21:32:00
4:53 PM,44.6,26.6,49,30.29,10.0,ESE,4.6,-,N/A,,Clear,120,2012-10-29 21:53:00
5:13 PM,42.8,26.6,53,30.29,7.0,ESE,4.6,-,N/A,,Scattered Clouds,120,2012-10-29 22:13:00
5:32 PM,39.2,26.6,61,30.29,7.0,Calm,Calm,-,N/A,,Scattered Clouds,0,2012-10-29 22:32:00
5:53 PM,37.4,26.6,65,30.29,10.0,Calm,Calm,-,N/A,,Clear,0,2012-10-29 22:53:00
6:13 PM,35.6,26.6,70,30.29,10.0,Calm,Calm,-,N/A,,Clear,0,2012-10-29 23:13:00
6:33 PM,33.8,28.4,81,30.30,10.0,Calm,Calm,-,N/A,,Clear,0,2012-10-29 23:33:00
6:53 PM,32.0,26.6,80,30.30,10.0,East,3.5,-,N/A,,Clear,80,2012-10-29 23:53:00
7:13 PM,30.2,26.6,86,30.30,10.0,East,3.5,-,N/A,,Scattered Clouds,90,2012-10-30 00:13:00
7:32 PM,32.0,26.6,80,30.31,10.0,ESE,3.5,-,N/A,,Mostly Cloudy,110,2012-10-30 00:32:00
7:53 PM,33.8,26.6,75,30.30,10.0,ESE,3.5,-,N/A,,Overcast,110,2012-10-30 00:53:00
8:12 PM,35.6,26.6,70,30.30,10.0,ESE,4.6,-,N/A,,Overcast,110,2012-10-30 01:12:00
8:33 PM,33.8,26.6,75,30.29,10.0,ESE,4.6,-,N/A,,Mostly Cloudy,110,2012-10-30 01:33:00
8:53 PM,32.0,28.4,87,30.30,10.0,ESE,4.6,-,N/A,,Overcast,110,2012-10-30 01:53:00
9:12 PM,33.8,26.6,75,30.30,10.0,ESE,4.6,-,N/A,,Overcast,120,2012-10-30 02:12:00
9:33 PM,33.8,26.6,75,30.30,10.0,ESE,5.8,-,N/A,,Overcast,120,2012-10-30 02:33:00
9:53 PM,33.8,26.6,75,30.29,10.0,ESE,4.6,-,N/A,,Overcast,110,2012-10-30 02:53:00
10:13 PM,33.8,26.6,75,30.29,10.0,Calm,Calm,-,N/A,,Overcast,0,2012-10-30 03:13:00
10:33 PM,32.0,26.6,80,30.29,10.0,Calm,Calm,-,N/A,,Overcast,0,2012-10-30 03:33:00
10:52 PM,30.2,26.6,86,30.29,10.0,Calm,Calm,-,N/A,,Scattered Clouds,0,2012-10-30 03:52:00
11:13 PM,28.4,26.6,93,30.29,10.0,Calm,Calm,-,N/A,,Clear,0,2012-10-30 04:13:00
11:33 PM,28.4,26.6,93,30.29,10.0,Calm,Calm,-,N/A,,Clear,0,2012-10-30 04:33:00
11:52 PM,28.4,26.6,93,30.29,10.0,Calm,Calm,-,N/A,,Clear,0,2012-10-30 04:52:00